Location: La Pernelle
(49.6188°N, 1.2999°W)
Time: 14:56:15
(UTC+00:00)

Cosmos 2360 Rocket - Pass Details

Date: 12 June 2021
Orbit: 835 x 843 km, 71.0° (Epoch: 05 August)

Event Time Altitude Azimuth Distance (km) Brightness Sun altitude
Exits shadow 21:06:19 - 139° (SE) 2,577 4.0 -7.1°
Reaches altitude 10° 21:06:51 10° 134° (SE) 2,452 3.9 -7.1°
Maximum altitude 21:10:10 16° 98° (E) 2,053 3.8 -7.5°
Drops below altitude 10° 21:13:28 10° 62° (ENE) 2,460 4.5 -7.8°
Sets 21:16:49 0° 42° (NE) 3,399 5.5 -8.1°
